Atlanta Fulton, GA

7:27 AM EST on November 13, 2019 (GMT -0500)
Fulton County-Brown

Weather History for KFTY - September, 2019

Change the Weather History Date:

Tuesday, September 24, 2019

  Actual Average Record
Temperature  
Mean Temperature 79 °F 70 °F  
Max Temperature 91 °F 81 °F 92 °F (2016)
Min Temperature 66 °F 59 °F 45 °F (1999)
Degree Days  
Heating Degree Days 0 1  
Month to date heating degree days 0 3  
Since 1 July heating degree days 0 3  
Cooling Degree Days 14 6  
Month to date cooling degree days 350 214  
Year to date cooling degree days 2066 1651  
Growing Degree Days 30 (Base 50)    
Moisture  
Dew Point 62 °F    
Average Humidity 59    
Maximum Humidity 84    
Minimum Humidity 34    
Precipitation  
Precipitation 0.00 in 0.16 in 1.02 in (1985)
Month to date precipitation 1.61 3.06  
Year to date precipitation 31.90 38.48  
Sea Level Pressure  
Sea Level Pressure 29.90 in    
Wind  
Wind Speed 3 mph (NW)    
Max Wind Speed 13 mph    
Max Gust Speed 17 mph    
Visibility 10 miles    
Events      
T = Trace of Precipitation, MM = Missing Value Source: NWS Daily Summary

Daily Weather History Graph

Daily Weather History Graph

Search for Another Location

Airport or City:

Astronomy

Sep. 24, 2019 Rise Set
Actual Time 7:27 AM EDT 7:32 PM EDT
Civil Twilight 7:02 AM EDT 7:57 PM EDT
Nautical Twilight 6:33 AM EDT 8:26 PM EDT
Astronomical Twilight 6:04 AM EDT 8:55 PM EDT
Moon 2:28 AM EDT (9/24) 5:01 PM EDT (9/24)
Length of Visible Light 12h 54m
Length of Day
12h 04m
Waning Crescent, 23% of the Moon is Illuminated
Sep 24
Waning Crescent
Sep 28
New
Oct 5
First Quarter
Oct 13
Full
Oct 21
Last Quarter

Hourly Weather History & Observations

Time (EDT) Temp. Heat Index Dew Point Humidity Pressure Visibility Wind Dir Wind Speed Gust Speed Precip Events Conditions
12:53 AM 72.0 °F - 64.0 °F 76% 29.95 in 10.0 mi Calm Calm - N/A   Overcast
1:53 AM 73.9 °F - 64.0 °F 71% 29.94 in 10.0 mi Calm Calm - N/A   Overcast
2:53 AM 75.0 °F - 63.0 °F 66% 29.93 in 10.0 mi Calm Calm - N/A   Overcast
3:53 AM 73.0 °F - 64.0 °F 73% 29.92 in 10.0 mi Calm Calm - N/A   Partly Cloudy
4:53 AM 73.0 °F - 64.0 °F 73% 29.91 in 10.0 mi Calm Calm - N/A   Clear
5:53 AM 72.0 °F - 64.0 °F 76% 29.92 in 10.0 mi Calm Calm - N/A   Clear
6:53 AM 70.0 °F - 64.0 °F 81% 29.93 in 10.0 mi Calm Calm - N/A   Clear
7:53 AM 70.0 °F - 64.9 °F 84% 29.95 in 10.0 mi Calm Calm - N/A   Clear
8:53 AM 75.0 °F - 64.9 °F 71% 29.96 in 10.0 mi Calm Calm - N/A   Clear
9:53 AM 79.0 °F - 68.0 °F 69% 29.96 in 10.0 mi NW 8.1 mph - N/A   Clear
10:53 AM 82.9 °F 85.8 °F 68.0 °F 60% 29.95 in 10.0 mi WNW 4.6 mph - N/A   Clear
11:53 AM 84.9 °F 87.6 °F 66.9 °F 55% 29.94 in 10.0 mi Variable 4.6 mph - N/A   Clear
12:53 PM 87.1 °F 89.2 °F 66.0 °F 49% 29.92 in 10.0 mi Calm Calm - N/A   Mostly Cloudy
1:53 PM 87.1 °F 87.8 °F 63.0 °F 44% 29.90 in 10.0 mi Variable 3.5 mph - N/A   Scattered Clouds
2:53 PM 89.1 °F 90.0 °F 63.0 °F 42% 29.87 in 10.0 mi NNW 10.4 mph - N/A   Mostly Cloudy
3:53 PM 90.0 °F 90.0 °F 61.0 °F 38% 29.85 in 10.0 mi NW 5.8 mph - N/A   Scattered Clouds
4:53 PM 89.1 °F 88.2 °F 59.0 °F 36% 29.84 in 10.0 mi WNW 5.8 mph - N/A   Scattered Clouds
5:53 PM 90.0 °F 88.8 °F 57.9 °F 34% 29.84 in 10.0 mi NW 5.8 mph - N/A   Partly Cloudy
6:53 PM 88.0 °F 86.1 °F 55.0 °F 32% 29.85 in 10.0 mi West 8.1 mph - N/A   Clear
7:53 PM 81.0 °F 81.1 °F 57.9 °F 45% 29.85 in 10.0 mi Calm Calm - N/A   Clear
8:53 PM 78.1 °F - 57.9 °F 50% 29.86 in 10.0 mi Calm Calm - N/A   Clear
9:53 PM 71.1 °F - 60.1 °F 68% 29.88 in 10.0 mi NNE 4.6 mph - N/A   Clear
10:53 PM 77.0 °F - 52.0 °F 42% 29.87 in 10.0 mi Calm Calm - N/A   Clear
11:53 PM 70.0 °F - 57.0 °F 63% 29.86 in 10.0 mi Calm Calm - N/A   Clear